• In Schweiz
  • Länderverzeichnis
  • Für 7 Tage
  • Wassertemperatur
  • Satellitenkarten
  • Wetterkarte
  • Widgets
  • user-avatar
    Anmelden

    Stündliche Wetter Staryy Akbulyak

    Heute, 16 Juli, Montag

    Zeit Temperatur Niederschläge Wind Luftdruck Luftfeuchtigkeit
    00:00 +19°C° 0 mm 3 m/S 745 mmHg 87%
    01:00 +18°C° 0 mm 2 m/S 745 mmHg 89%
    02:00 +18°C° 0 mm 2 m/S 745 mmHg 91%
    03:00 +17°C° 0 mm 2 m/S 745 mmHg 93%
    04:00 +18°C° 0 mm 2 m/S 745 mmHg 95%
    05:00 +19°C° 0 mm 2 m/S 745 mmHg 91%
    06:00 +21°C° 0 mm 2 m/S 745 mmHg 86%
    07:00 +23°C° 0 mm 2 m/S 745 mmHg 81%
    08:00 +24°C° 0 mm 3 m/S 745 mmHg 74%
    09:00 +26°C° 0 mm 3 m/S 745 mmHg 67%
    10:00 +27°C° 0 mm 3 m/S 746 mmHg 60%
    11:00 +28°C° 0 mm 3 m/S 745 mmHg 58%
    12:00 +29°C° 0 mm 2 m/S 745 mmHg 56%
    13:00 +29°C° 0 mm 2 m/S 745 mmHg 54%
    14:00 +29°C° 0 mm 2 m/S 745 mmHg 53%
    15:00 +29°C° 0 mm 2 m/S 745 mmHg 53%
    16:00 +30°C° 0 mm 2 m/S 745 mmHg 53%
    17:00 +29°C° 0 mm 2 m/S 745 mmHg 59%
    18:00 +28°C° 0 mm 2 m/S 745 mmHg 65%
    19:00 +27°C° 0 mm 1 m/S 745 mmHg 71%
    20:00 +25°C° 0 mm 2 m/S 745 mmHg 75%
    21:00 +23°C° 0 mm 2 m/S 745 mmHg 78%
    22:00 +21°C° 0 mm 2 m/S 745 mmHg 82%
    23:00 +20°C° 0 mm 2 m/S 745 mmHg 84%

    Morgen, 17 Juli, Dienstag

    Zeit Temperatur Niederschläge Wind Luftdruck Luftfeuchtigkeit
    00:00 +19°C° 0 mm 2 m/S 745 mmHg 85%
    01:00 +18°C° 0 mm 2 m/S 745 mmHg 87%
    02:00 +18°C° 0 mm 2 m/S 745 mmHg 88%
    03:00 +17°C° 0 mm 2 m/S 745 mmHg 89%
    04:00 +17°C° 0 mm 2 m/S 745 mmHg 90%
    05:00 +18°C° 0 mm 2 m/S 745 mmHg 86%
    06:00 +19°C° 0 mm 2 m/S 745 mmHg 82%
    07:00 +20°C° 0 mm 2 m/S 745 mmHg 78%
    08:00 +23°C° 0 mm 2 m/S 745 mmHg 71%
    09:00 +24°C° 0 mm 2 m/S 745 mmHg 64%
    10:00 +26°C° 0 mm 2 m/S 745 mmHg 58%
    11:00 +27°C° 0 mm 2 m/S 745 mmHg 55%
    12:00 +27°C° 0 mm 2 m/S 745 mmHg 52%
    13:00 +28°C° 0 mm 2 m/S 745 mmHg 49%
    14:00 +28°C° 0 mm 2 m/S 744 mmHg 53%
    15:00 +28°C° 0 mm 2 m/S 744 mmHg 56%
    16:00 +28°C° 0 mm 2 m/S 744 mmHg 60%
    17:00 +27°C° 0 mm 2 m/S 744 mmHg 65%
    18:00 +25°C° 0 mm 1 m/S 744 mmHg 69%
    19:00 +24°C° 0 mm 1 m/S 744 mmHg 74%
    20:00 +24°C° 0 mm 2 m/S 744 mmHg 74%
    21:00 +23°C° 0 mm 2 m/S 744 mmHg 75%
    22:00 +21°C° 0 mm 2 m/S 744 mmHg 76%
    23:00 +21°C° 0,1 mm 2 m/S 744 mmHg 79%

    übermorgen, 18 Juli, Mittwoch

    Zeit Temperatur Niederschläge Wind Luftdruck Luftfeuchtigkeit
    00:00 +20°C° 0,1 mm 2 m/S 744 mmHg 82%
    01:00 +20°C° 0,1 mm 2 m/S 743 mmHg 86%
    02:00 +20°C° 0,6 mm 2 m/S 743 mmHg 89%
    03:00 +19°C° 0,6 mm 2 m/S 743 mmHg 92%
    04:00 +19°C° 0,6 mm 2 m/S 743 mmHg 95%
    05:00 +19°C° 0,7 mm 2 m/S 743 mmHg 95%
    06:00 +19°C° 0,7 mm 3 m/S 743 mmHg 95%
    07:00 +19°C° 0,7 mm 3 m/S 743 mmHg 94%
    08:00 +20°C° 0 mm 4 m/S 743 mmHg 88%
    09:00 +22°C° 0 mm 4 m/S 743 mmHg 82%
    10:00 +23°C° 0 mm 4 m/S 743 mmHg 76%
    11:00 +25°C° 0 mm 4 m/S 743 mmHg 71%
    12:00 +26°C° 0 mm 4 m/S 743 mmHg 66%
    13:00 +27°C° 0 mm 4 m/S 743 mmHg 61%
    14:00 +28°C° 0,1 mm 4 m/S 743 mmHg 61%
    15:00 +28°C° 0,1 mm 4 m/S 743 mmHg 61%
    16:00 +29°C° 0,1 mm 4 m/S 743 mmHg 61%
    17:00 +27°C° 0,3 mm 3 m/S 743 mmHg 66%
    18:00 +26°C° 0,3 mm 3 m/S 743 mmHg 72%
    19:00 +25°C° 0,3 mm 3 m/S 743 mmHg 78%
    20:00 +24°C° 0,2 mm 3 m/S 743 mmHg 82%
    21:00 +21°C° 0,2 mm 3 m/S 744 mmHg 86%
    22:00 +20°C° 0,2 mm 3 m/S 744 mmHg 90%
    23:00 +20°C° 0,4 mm 3 m/S 744 mmHg 92%

    19 Juli, Donnerstag

    Zeit Temperatur Niederschläge Wind Luftdruck Luftfeuchtigkeit
    00:00 +19°C° 0,4 mm 2 m/S 744 mmHg 94%
    01:00 +19°C° 0,4 mm 2 m/S 744 mmHg 96%
    02:00 +19°C° 0,8 mm 2 m/S 744 mmHg 96%
    03:00 +18°C° 0,8 mm 2 m/S 744 mmHg 97%
    04:00 +18°C° 0,8 mm 2 m/S 744 mmHg 97%
    05:00 +19°C° 0,2 mm 2 m/S 744 mmHg 95%
    06:00 +20°C° 0,2 mm 3 m/S 744 mmHg 94%
    07:00 +20°C° 0,2 mm 3 m/S 744 mmHg 92%
    08:00 +21°C° 0 mm 3 m/S 744 mmHg 86%
    09:00 +24°C° 0 mm 3 m/S 744 mmHg 79%
    10:00 +25°C° 0 mm 3 m/S 744 mmHg 73%
    11:00 +26°C° 0 mm 3 m/S 744 mmHg 69%
    12:00 +27°C° 0 mm 3 m/S 744 mmHg 65%
    13:00 +28°C° 0 mm 3 m/S 744 mmHg 61%
    14:00 +27°C° 0,2 mm 3 m/S 744 mmHg 65%
    15:00 +27°C° 0,2 mm 3 m/S 744 mmHg 69%
    16:00 +26°C° 0,2 mm 3 m/S 744 mmHg 73%
    17:00 +25°C° 0,4 mm 3 m/S 744 mmHg 78%
    18:00 +24°C° 0,4 mm 3 m/S 744 mmHg 83%
    19:00 +22°C° 0,4 mm 3 m/S 744 mmHg 88%
    20:00 +21°C° 0,1 mm 3 m/S 744 mmHg 91%
    21:00 +20°C° 0,1 mm 3 m/S 744 mmHg 93%
    22:00 +19°C° 0,1 mm 3 m/S 745 mmHg 95%
    23:00 +18°C° 0 mm 3 m/S 745 mmHg 95%

    20 Juli, Freitag

    Zeit Temperatur Niederschläge Wind Luftdruck Luftfeuchtigkeit
    00:00 +18°C° 0 mm 3 m/S 745 mmHg 95%
    01:00 +18°C° 0 mm 3 m/S 744 mmHg 95%
    02:00 +17°C° 0,1 mm 3 m/S 745 mmHg 95%
    03:00 +17°C° 0,1 mm 3 m/S 745 mmHg 95%
    04:00 +17°C° 0,1 mm 3 m/S 745 mmHg 95%
    05:00 +18°C° 0 mm 3 m/S 745 mmHg 93%
    06:00 +19°C° 0 mm 3 m/S 745 mmHg 90%
    07:00 +20°C° 0 mm 4 m/S 745 mmHg 88%
    08:00 +21°C° 0 mm 4 m/S 745 mmHg 82%
    09:00 +22°C° 0 mm 4 m/S 745 mmHg 77%
    10:00 +25°C° 0 mm 4 m/S 745 mmHg 71%
    11:00 +26°C° 0,3 mm 4 m/S 745 mmHg 68%
    12:00 +27°C° 0,3 mm 4 m/S 745 mmHg 66%
    13:00 +28°C° 0,3 mm 4 m/S 745 mmHg 63%
    14:00 +28°C° 0,3 mm 4 m/S 745 mmHg 64%
    15:00 +28°C° 0,3 mm 4 m/S 745 mmHg 65%
    16:00 +28°C° 0,3 mm 4 m/S 745 mmHg 66%
    17:00 +26°C° 0,2 mm 3 m/S 745 mmHg 71%
    18:00 +25°C° 0,2 mm 3 m/S 745 mmHg 76%
    19:00 +24°C° 0,2 mm 3 m/S 745 mmHg 80%
    20:00 +22°C° 0 mm 3 m/S 745 mmHg 83%
    21:00 +21°C° 0 mm 3 m/S 745 mmHg 85%
    22:00 +20°C° 0 mm 3 m/S 746 mmHg 87%
    23:00 +20°C° 0 mm 3 m/S 746 mmHg 87%

    21 Juli, Samstag

    Zeit Temperatur Niederschläge Wind Luftdruck Luftfeuchtigkeit
    00:00 +19°C° 0 mm 3 m/S 746 mmHg 86%
    01:00 +19°C° 0 mm 3 m/S 746 mmHg 86%
    02:00 +18°C° 0 mm 3 m/S 746 mmHg 84%
    03:00 +18°C° 0 mm 3 m/S 746 mmHg 83%
    04:00 +17°C° 0 mm 4 m/S 746 mmHg 82%
    05:00 +18°C° 0 mm 4 m/S 747 mmHg 78%
    06:00 +19°C° 0 mm 4 m/S 747 mmHg 75%
    07:00 +19°C° 0 mm 4 m/S 747 mmHg 72%
    08:00 +21°C° 0 mm 4 m/S 747 mmHg 66%
    09:00 +22°C° 0 mm 5 m/S 747 mmHg 60%
    10:00 +25°C° 0 mm 5 m/S 747 mmHg 54%
    11:00 +25°C° 0 mm 5 m/S 747 mmHg 52%
    12:00 +26°C° 0 mm 5 m/S 747 mmHg 50%
    13:00 +27°C° 0 mm 5 m/S 748 mmHg 48%
    14:00 +27°C° 0 mm 5 m/S 748 mmHg 49%
    15:00 +27°C° 0 mm 5 m/S 748 mmHg 50%
    16:00 +27°C° 0 mm 5 m/S 748 mmHg 51%
    17:00 +26°C° 0 mm 4 m/S 748 mmHg 57%
    18:00 +25°C° 0 mm 4 m/S 748 mmHg 62%
    19:00 +22°C° 0 mm 3 m/S 748 mmHg 67%
    20:00 +21°C° 0 mm 4 m/S 748 mmHg 68%
    21:00 +20°C° 0 mm 4 m/S 749 mmHg 70%
    22:00 +19°C° 0 mm 4 m/S 749 mmHg 71%
    23:00 +18°C° 0 mm 4 m/S 749 mmHg 73%
    Mehr zeigen